This is the latest recevied weather packets stored in our database for station/object CE4JVU-10. If no packets are shown the sender has not sent any weather packets the latest 10 day(s).
| Time | Temp. | Humidity | Pressure | Rain* | Wind** | Luminosity | Snow |
|---|---|---|---|---|---|---|---|
| 1788200644 | 21.67° C | 46% | 987.5 hPa | - | - | - | - |
| 1788199744 | 21.67° C | 47% | 987.9 hPa | - | - | - | - |
| 1788198844 | 21.11° C | 46% | 987.9 hPa | - | - | - | - |
| 1788197944 | 20.56° C | 45% | 988 hPa | - | - | - | - |
| 1788197044 | 20.56° C | 47% | 988.3 hPa | - | - | - | - |
| 1788196144 | 20° C | 50% | 988.4 hPa | - | - | - | - |
| 1788195243 | 19.44° C | 52% | 988.8 hPa | - | - | - | - |
| 1788194343 | 18.89° C | 52% | 989 hPa | - | - | - | - |
| 1788193443 | 18.89° C | 53% | 989.3 hPa | - | - | - | - |
| 1788192543 | 18.33° C | 52% | 989.5 hPa | - | - | - | - |
| 1788190743 | 17.78° C | 52% | 989.8 hPa | - | - | - | - |
| 1788189843 | 17.78° C | 53% | 990 hPa | - | - | - | - |
| 1788188943 | 17.78° C | 56% | 990 hPa | - | - | - | - |
| 1788188043 | 18.33° C | 58% | 990 hPa | - | - | - | - |
| 1788187143 | 17.78° C | 57% | 990 hPa | - | - | - | - |
| 1788186242 | 17.22° C | 57% | 989.8 hPa | - | - | - | - |
| 1788185342 | 17.78° C | 58% | 989.8 hPa | - | - | - | - |
| 1788184442 | 17.78° C | 60% | 989.5 hPa | - | - | - | - |
| 1788183542 | 17.78° C | 58% | 989.4 hPa | - | - | - | - |
| 1788182642 | 17.78° C | 62% | 989.4 hPa | - | - | - | - |
| 1788181742 | 17.78° C | 61% | 989.4 hPa | - | - | - | - |
| 1788180845 | 17.78° C | 61% | 989.1 hPa | - | - | - | - |
| 1788179945 | 17.22° C | 60% | 988.8 hPa | - | - | - | - |
| 1788179044 | 17.22° C | 60% | 988.7 hPa | - | - | - | - |
| 1788178144 | 17.22° C | 61% | 988.3 hPa | - | - | - | - |
* Rain since midnight (hover to see other rain measurements)
** Current wind speed in m/s (hover to see current wind gust speed)